Time,TemperatureF,DewpointF,PressureIn,WindDirection,WindDirectionDegrees,WindSpeedMPH,WindSpeedGustMPH,Humidity,HourlyPrecipIn,Conditions,Clouds,dailyrainin,SoftwareType,DateUTC
2013-03-16 00:00:00,48.8,46.0,30.19,West,261,0.0,13.0,90,0.00,,,0.00,Wunderground v.1.15,2013-03-16 07:00:00,
2013-03-16 00:05:00,48.8,46.0,30.19,West,261,0.0,13.0,90,0.00,,,0.00,Wunderground v.1.15,2013-03-16 07:05:00,
2013-03-16 00:11:00,48.8,46.0,30.19,West,261,0.0,0.0,90,0.00,,,0.00,Wunderground v.1.15,2013-03-16 07:11:00,
2013-03-16 00:17:00,48.8,46.0,30.19,West,261,0.0,0.0,90,0.00,,,0.00,Wunderground v.1.15,2013-03-16 07:17:00,
2013-03-16 00:22:00,48.8,46.0,30.18,West,261,0.0,0.0,90,0.00,,,0.00,Wunderground v.1.15,2013-03-16 07:22:00,
2013-03-16 00:28:00,48.8,46.0,30.18,West,261,0.0,2.0,90,0.00,,,0.00,Wunderground v.1.15,2013-03-16 07:28:00,
2013-03-16 00:33:00,48.8,46.0,30.19,West,261,1.0,1.0,90,0.00,,,0.00,Wunderground v.1.15,2013-03-16 07:33:00,
2013-03-16 00:39:00,48.8,46.0,30.19,West,261,0.0,1.0,90,0.00,,,0.00,Wunderground v.1.15,2013-03-16 07:39:00,
2013-03-16 00:44:00,48.8,46.0,30.19,West,261,0.0,0.0,90,0.00,,,0.00,Wunderground v.1.15,2013-03-16 07:44:00,
2013-03-16 00:49:00,48.8,46.0,30.18,West,261,0.0,0.0,90,0.00,,,0.00,Wunderground v.1.15,2013-03-16 07:49:00,
2013-03-16 00:55:00,48.8,46.0,30.18,West,261,0.0,0.0,90,0.00,,,0.00,Wunderground v.1.15,2013-03-16 07:55:00,
2013-03-16 10:44:00,48.8,46.3,30.09,SE,142,0.0,0.0,91,0.00,,,0.06,Wunderground v.1.15,2013-03-16 17:44:00,
2013-03-16 10:50:00,48.7,46.5,30.09,SE,142,0.0,0.0,92,0.09,,,0.07,Wunderground v.1.15,2013-03-16 17:50:00,
2013-03-16 10:55:00,48.9,46.7,30.09,SE,142,0.0,2.0,92,0.06,,,0.07,Wunderground v.1.15,2013-03-16 17:55:00,
2013-03-16 11:02:00,48.8,46.6,30.08,SSE,155,1.0,4.0,92,0.05,,,0.08,Wunderground v.1.15,2013-03-16 18:02:00,
2013-03-16 11:08:00,48.9,46.4,30.08,SSE,165,2.0,4.0,91,0.06,,,0.09,Wunderground v.1.15,2013-03-16 18:08:00,
2013-03-16 11:14:00,48.9,46.7,30.08,SSW,192,2.0,3.0,92,0.13,,,0.10,Wunderground v.1.15,2013-03-16 18:14:00,
2013-03-16 11:19:00,49.0,46.8,30.08,SSW,192,1.0,3.0,92,0.06,,,0.10,Wunderground v.1.15,2013-03-16 18:19:00,
2013-03-16 11:24:00,49.0,46.8,30.08,WSW,254,2.0,3.0,92,0.06,,,0.11,Wunderground v.1.15,2013-03-16 18:24:00,
2013-03-16 11:30:00,49.0,46.5,30.08,SW,233,3.0,3.0,91,0.06,,,0.11,Wunderground v.1.15,2013-03-16 18:30:00,
2013-03-16 11:35:00,49.0,46.5,30.08,SSW,198,3.0,4.0,91,0.04,,,0.11,Wunderground v.1.15,2013-03-16 18:35:00,
2013-03-16 11:41:00,49.0,46.2,30.08,SSW,208,3.0,5.0,90,0.00,,,0.11,Wunderground v.1.15,2013-03-16 18:41:00,
2013-03-16 11:47:00,49.0,46.2,30.07,SSW,205,4.0,7.0,90,0.00,,,0.11,Wunderground v.1.15,2013-03-16 18:47:00,
2013-03-16 11:52:00,49.1,46.0,30.07,SSW,206,4.0,4.0,89,0.00,,,0.11,Wunderground v.1.15,2013-03-16 18:52:00,
2013-03-16 11:57:00,49.2,46.1,30.07,South,185,3.0,5.0,89,0.00,,,0.11,Wunderground v.1.15,2013-03-16 18:57:00,
2013-03-16 12:02:00,49.1,45.7,30.08,SW,226,4.0,7.0,88,0.00,,,0.11,Wunderground v.1.15,2013-03-16 19:02:00,
2013-03-16 12:08:00,48.9,45.2,30.07,SW,218,7.0,9.0,87,0.00,,,0.11,Wunderground v.1.15,2013-03-16 19:08:00,
2013-03-16 12:13:00,48.8,45.1,30.08,SSW,213,7.0,10.0,87,0.00,,,0.11,Wunderground v.1.15,2013-03-16 19:13:00,
2013-03-16 12:19:00,48.8,45.4,30.08,SSW,211,6.0,10.0,88,0.00,,,0.11,Wunderground v.1.15,2013-03-16 19:19:00,
2013-03-16 12:24:00,48.7,45.3,30.08,SW,219,5.0,6.0,88,0.00,,,0.12,Wunderground v.1.15,2013-03-16 19:24:00,
2013-03-16 12:29:00,48.8,45.7,30.08,WSW,252,4.0,6.0,89,0.00,,,0.12,Wunderground v.1.15,2013-03-16 19:29:00,
2013-03-16 12:35:00,48.9,46.1,30.07,SW,227,3.0,7.0,90,0.00,,,0.12,Wunderground v.1.15,2013-03-16 19:35:00,
2013-03-16 12:40:00,49.2,46.4,30.06,SW,236,3.0,4.0,90,0.00,,,0.12,Wunderground v.1.15,2013-03-16 19:40:00,
2013-03-16 12:46:00,49.6,47.1,30.06,SW,226,4.0,5.0,91,0.00,,,0.12,Wunderground v.1.15,2013-03-16 19:46:00,
2013-03-16 12:52:00,50.2,47.4,30.06,SSW,209,4.0,6.0,90,0.00,,,0.12,Wunderground v.1.15,2013-03-16 19:52:00,
2013-03-16 12:58:00,50.7,47.3,30.06,SW,236,5.0,10.0,88,0.00,,,0.12,Wunderground v.1.15,2013-03-16 19:58:00,
2013-03-16 13:03:00,51.0,47.3,30.06,SW,216,4.0,9.0,87,0.00,,,0.12,Wunderground v.1.15,2013-03-16 20:03:00,
2013-03-16 13:09:00,51.3,47.6,30.06,SSW,204,3.0,9.0,87,0.00,,,0.12,Wunderground v.1.15,2013-03-16 20:09:00,
2013-03-16 13:15:00,51.2,46.8,30.06,SW,227,4.0,9.0,85,0.00,,,0.12,Wunderground v.1.15,2013-03-16 20:15:00,
2013-03-16 13:21:00,50.6,46.6,30.06,WSW,247,5.0,9.0,86,0.00,,,0.13,Wunderground v.1.15,2013-03-16 20:21:00,
2013-03-16 13:26:00,50.4,46.7,30.06,West,261,5.0,9.0,87,0.00,,,0.13,Wunderground v.1.15,2013-03-16 20:26:00,
2013-03-16 13:31:00,50.1,46.1,30.06,SW,221,5.0,9.0,86,0.00,,,0.13,Wunderground v.1.15,2013-03-16 20:31:00,
2013-03-16 13:37:00,49.5,45.5,30.06,NW,312,4.0,9.0,86,0.36,,,0.15,Wunderground v.1.15,2013-03-16 20:37:00,
2013-03-16 13:43:00,48.7,45.0,30.05,West,273,3.0,9.0,87,0.13,,,0.16,Wunderground v.1.15,2013-03-16 20:43:00,
2013-03-16 13:48:00,48.3,45.2,30.05,WSW,247,3.0,9.0,89,0.09,,,0.16,Wunderground v.1.15,2013-03-16 20:48:00,
2013-03-16 13:54:00,48.4,45.6,30.05,SSW,199,3.0,9.0,90,0.05,,,0.16,Wunderground v.1.15,2013-03-16 20:54:00,
2013-03-16 13:59:00,48.7,46.2,30.05,WNW,282,3.0,9.0,91,0.00,,,0.16,Wunderground v.1.15,2013-03-16 20:59:00,
2013-03-16 14:05:00,49.1,46.0,30.04,WNW,283,3.0,10.0,89,0.00,,,0.16,Wunderground v.1.15,2013-03-16 21:05:00,
2013-03-16 14:11:00,49.2,45.5,30.04,WNW,295,3.0,9.0,87,0.00,,,0.16,Wunderground v.1.15,2013-03-16 21:11:00,
2013-03-16 14:16:00,49.3,45.3,30.04,SSW,211,3.0,9.0,86,0.00,,,0.16,Wunderground v.1.15,2013-03-16 21:16:00,
2013-03-16 14:22:00,49.8,46.4,30.03,WSW,258,3.0,9.0,88,0.00,,,0.16,Wunderground v.1.15,2013-03-16 21:22:00,
2013-03-16 14:28:00,50.2,45.9,30.03,WNW,294,3.0,11.0,85,0.00,,,0.16,Wunderground v.1.15,2013-03-16 21:28:00,
2013-03-16 14:34:00,50.1,46.1,30.03,WNW,289,2.0,9.0,86,0.00,,,0.16,Wunderground v.1.15,2013-03-16 21:34:00,
2013-03-16 14:40:00,49.9,46.2,30.03,West,272,2.0,2.0,87,0.00,,,0.16,Wunderground v.1.15,2013-03-16 21:40:00,
2013-03-16 14:46:00,49.5,45.2,30.03,WNW,300,2.0,9.0,85,0.00,,,0.16,Wunderground v.1.15,2013-03-16 21:46:00,
2013-03-16 14:52:00,49.2,45.2,30.02,WNW,290,3.0,9.0,86,0.00,,,0.16,Wunderground v.1.15,2013-03-16 21:52:00,
2013-03-16 14:57:00,48.7,45.0,30.02,WNW,296,3.0,9.0,87,0.00,,,0.17,Wunderground v.1.15,2013-03-16 21:57:00,
2013-03-16 15:03:00,48.5,45.4,30.02,WNW,291,3.0,9.0,89,0.07,,,0.17,Wunderground v.1.15,2013-03-16 22:03:00,
2013-03-16 15:08:00,48.4,45.6,30.02,WNW,297,1.0,9.0,90,0.07,,,0.17,Wunderground v.1.15,2013-03-16 22:08:00,
2013-03-16 15:14:00,47.8,44.1,30.02,WNW,290,4.0,11.0,87,0.05,,,0.17,Wunderground v.1.15,2013-03-16 22:14:00,
2013-03-16 15:20:00,46.9,43.2,30.03,NW,307,6.0,6.0,87,0.05,,,0.18,Wunderground v.1.15,2013-03-16 22:20:00,
2013-03-16 15:25:00,46.2,42.5,30.03,SW,225,5.0,16.0,87,0.07,,,0.19,Wunderground v.1.15,2013-03-16 22:25:00,
2013-03-16 15:30:00,45.6,42.0,30.03,WSW,239,6.0,6.0,87,0.07,,,0.19,Wunderground v.1.15,2013-03-16 22:30:00,
2013-03-16 15:36:00,45.2,41.6,30.03,WSW,250,6.0,9.0,87,0.05,,,0.19,Wunderground v.1.15,2013-03-16 22:36:00,
2013-03-16 15:41:00,45.0,41.7,30.04,WNW,290,6.0,9.0,88,0.00,,,0.19,Wunderground v.1.15,2013-03-16 22:41:00,
2013-03-16 15:47:00,44.7,41.4,30.04,SW,235,6.0,11.0,88,0.00,,,0.19,Wunderground v.1.15,2013-03-16 22:47:00,
2013-03-16 15:53:00,44.4,40.5,30.04,West,281,6.0,9.0,86,0.00,,,0.19,Wunderground v.1.15,2013-03-16 22:53:00,
2013-03-16 15:59:00,44.1,39.9,30.04,West,267,6.0,9.0,85,0.00,,,0.19,Wunderground v.1.15,2013-03-16 22:59:00,
2013-03-16 16:05:00,43.8,39.9,30.04,WNW,294,5.0,12.0,86,0.00,,,0.19,Wunderground v.1.15,2013-03-16 23:05:00,
2013-03-16 16:10:00,43.7,39.8,30.04,WNW,291,4.0,9.0,86,0.00,,,0.20,Wunderground v.1.15,2013-03-16 23:10:00,
2013-03-16 16:16:00,43.7,40.1,30.03,WNW,293,3.0,9.0,87,0.00,,,0.20,Wunderground v.1.15,2013-03-16 23:16:00,
2013-03-16 16:22:00,43.9,40.6,30.03,West,263,3.0,9.0,88,0.00,,,0.20,Wunderground v.1.15,2013-03-16 23:22:00,
2013-03-16 16:28:00,44.0,40.7,30.04,West,272,3.0,9.0,88,0.00,,,0.20,Wunderground v.1.15,2013-03-16 23:28:00,
2013-03-16 16:33:00,44.1,40.8,30.04,WSW,252,3.0,11.0,88,0.00,,,0.20,Wunderground v.1.15,2013-03-16 23:33:00,
2013-03-16 16:39:00,44.1,40.8,30.04,SSW,207,3.0,11.0,88,0.00,,,0.20,Wunderground v.1.15,2013-03-16 23:39:00,
2013-03-16 16:45:00,44.3,41.3,30.03,West,273,2.0,9.0,89,0.00,,,0.20,Wunderground v.1.15,2013-03-16 23:45:00,
2013-03-16 16:50:00,44.4,41.1,30.03,WNW,282,2.0,2.0,88,0.00,,,0.20,Wunderground v.1.15,2013-03-16 23:50:00,
2013-03-16 16:56:00,44.6,41.3,30.03,WSW,245,3.0,9.0,88,0.00,,,0.20,Wunderground v.1.15,2013-03-16 23:56:00,
2013-03-16 17:02:00,45.0,41.7,30.03,WSW,249,3.0,9.0,88,0.00,,,0.20,Wunderground v.1.15,2013-03-17 00:02:00,
2013-03-16 17:07:00,45.1,41.5,30.03,SW,232,3.0,9.0,87,0.00,,,0.20,Wunderground v.1.15,2013-03-17 00:07:00,
2013-03-16 17:12:00,45.5,42.2,30.02,SW,236,3.0,9.0,88,0.00,,,0.20,Wunderground v.1.15,2013-03-17 00:12:00,
2013-03-16 17:18:00,45.8,42.2,30.03,WSW,245,2.0,9.0,87,0.00,,,0.20,Wunderground v.1.15,2013-03-17 00:18:00,
2013-03-16 17:23:00,45.9,41.9,30.03,SW,228,3.0,9.0,86,0.00,,,0.20,Wunderground v.1.15,2013-03-17 00:23:00,
2013-03-16 17:29:00,46.0,41.7,30.03,West,263,4.0,9.0,85,0.00,,,0.20,Wunderground v.1.15,2013-03-17 00:29:00,
2013-03-16 17:34:00,45.9,41.0,30.03,West,279,4.0,9.0,83,0.00,,,0.20,Wunderground v.1.15,2013-03-17 00:34:00,
2013-03-16 17:40:00,45.8,40.3,30.02,West,265,4.0,9.0,81,0.00,,,0.20,Wunderground v.1.15,2013-03-17 00:40:00,
2013-03-16 17:45:00,45.8,40.3,30.03,West,265,5.0,9.0,81,0.00,,,0.20,Wunderground v.1.15,2013-03-17 00:45:00,
2013-03-16 17:51:00,46.0,39.9,30.03,South,171,5.0,9.0,79,0.00,,,0.20,Wunderground v.1.15,2013-03-17 00:51:00,
2013-03-16 17:57:00,45.9,39.4,30.02,SW,227,5.0,9.0,78,0.00,,,0.20,Wunderground v.1.15,2013-03-17 00:57:00,
2013-03-16 18:02:00,45.6,39.1,30.03,SSW,210,5.0,10.0,78,0.00,,,0.20,Wunderground v.1.15,2013-03-17 01:02:00,
2013-03-16 18:07:00,45.5,39.0,30.02,WNW,290,4.0,10.0,78,0.00,,,0.20,Wunderground v.1.15,2013-03-17 01:07:00,
2013-03-16 18:13:00,45.2,38.4,30.02,WNW,288,5.0,9.0,77,0.00,,,0.20,Wunderground v.1.15,2013-03-17 01:13:00,
2013-03-16 18:18:00,45.1,39.0,30.02,West,269,5.0,14.0,79,0.00,,,0.20,Wunderground v.1.15,2013-03-17 01:18:00,
2013-03-16 18:24:00,45.0,39.2,30.02,WNW,284,4.0,5.0,80,0.00,,,0.20,Wunderground v.1.15,2013-03-17 01:24:00,
2013-03-16 18:30:00,44.8,39.6,30.02,West,269,3.0,4.0,82,0.00,,,0.20,Wunderground v.1.15,2013-03-17 01:30:00,
2013-03-16 18:36:00,44.8,40.0,30.03,WNW,292,3.0,5.0,83,0.00,,,0.20,Wunderground v.1.15,2013-03-17 01:36:00,
2013-03-16 18:41:00,44.8,40.0,30.03,WSW,242,2.0,5.0,83,0.00,,,0.20,Wunderground v.1.15,2013-03-17 01:41:00,
2013-03-16 18:47:00,44.6,39.1,30.03,WSW,246,2.0,5.0,81,0.00,,,0.20,Wunderground v.1.15,2013-03-17 01:47:00,
2013-03-16 18:53:00,44.3,38.8,30.03,NW,311,2.0,3.0,81,0.00,,,0.20,Wunderground v.1.15,2013-03-17 01:53:00,
2013-03-16 18:59:00,44.1,38.6,30.03,SW,232,2.0,4.0,81,0.00,,,0.20,Wunderground v.1.15,2013-03-17 01:59:00,
2013-03-16 19:05:00,43.8,38.3,30.03,SW,232,2.0,14.0,81,0.00,,,0.20,Wunderground v.1.15,2013-03-17 02:05:00,
2013-03-16 19:11:00,43.7,38.3,30.02,WSW,256,3.0,14.0,81,0.00,,,0.20,Wunderground v.1.15,2013-03-17 02:11:00,
2013-03-16 19:17:00,43.5,38.4,30.02,West,259,2.0,14.0,82,0.00,,,0.20,Wunderground v.1.15,2013-03-17 02:17:00,
2013-03-16 19:22:00,43.4,38.3,30.02,West,267,2.0,14.0,82,0.00,,,0.20,Wunderground v.1.15,2013-03-17 02:22:00,
2013-03-16 19:27:00,43.4,38.6,30.02,SW,221,2.0,14.0,83,0.00,,,0.20,Wunderground v.1.15,2013-03-17 02:27:00,
2013-03-16 19:33:00,43.3,38.8,30.03,West,266,3.0,14.0,84,0.00,,,0.21,Wunderground v.1.15,2013-03-17 02:33:00,
2013-03-16 19:38:00,43.1,38.9,30.03,West,278,4.0,14.0,85,0.12,,,0.22,Wunderground v.1.15,2013-03-17 02:38:00,
2013-03-16 19:44:00,42.9,39.0,30.03,WNW,282,2.0,14.0,86,0.06,,,0.22,Wunderground v.1.15,2013-03-17 02:44:00,
2013-03-16 19:50:00,42.8,39.2,30.03,WNW,282,1.0,1.0,87,0.04,,,0.22,Wunderground v.1.15,2013-03-17 02:50:00,
2013-03-16 19:56:00,42.7,39.1,30.03,SSW,194,1.0,14.0,87,0.00,,,0.23,Wunderground v.1.15,2013-03-17 02:56:00,
2013-03-16 20:02:00,42.4,39.1,30.05,WSW,244,5.0,14.0,88,0.27,,,0.25,Wunderground v.1.15,2013-03-17 03:02:00,
2013-03-16 20:07:00,42.0,38.7,30.04,WSW,247,5.0,14.0,88,0.28,,,0.27,Wunderground v.1.15,2013-03-17 03:07:00,
2013-03-16 20:12:00,41.6,38.6,30.04,West,269,3.0,14.0,89,0.09,,,0.27,Wunderground v.1.15,2013-03-17 03:12:00,
2013-03-16 20:18:00,41.2,38.2,30.05,West,281,2.0,14.0,89,0.05,,,0.27,Wunderground v.1.15,2013-03-17 03:18:00,
2013-03-16 20:23:00,41.0,38.0,30.05,WSW,243,2.0,14.0,89,0.04,,,0.28,Wunderground v.1.15,2013-03-17 03:23:00,
2013-03-16 20:29:00,41.0,38.3,30.05,SSW,210,2.0,14.0,90,0.04,,,0.28,Wunderground v.1.15,2013-03-17 03:29:00,
2013-03-16 20:34:00,40.9,38.5,30.05,SW,230,2.0,14.0,91,0.04,,,0.28,Wunderground v.1.15,2013-03-17 03:34:00,
2013-03-16 20:40:00,40.7,38.3,30.05,WNW,302,2.0,14.0,91,0.00,,,0.28,Wunderground v.1.15,2013-03-17 03:40:00,
2013-03-16 20:46:00,40.6,38.2,30.05,WNW,302,2.0,14.0,91,0.00,,,0.28,Wunderground v.1.15,2013-03-17 03:46:00,
2013-03-16 20:52:00,40.6,38.2,30.05,WNW,302,1.0,14.0,91,0.00,,,0.28,Wunderground v.1.15,2013-03-17 03:52:00,
2013-03-16 20:57:00,40.6,38.2,30.06,WNW,302,0.0,14.0,91,0.00,,,0.28,Wunderground v.1.15,2013-03-17 03:57:00,
2013-03-16 21:00:00,40.6,38.5,30.06,SW,224,0.0,14.0,92,0.00,,,0.28,Wunderground v.1.15,2013-03-17 04:00:00,
2013-03-16 21:01:00,40.6,38.5,30.06,SW,225,0.0,14.0,92,0.00,,,0.28,Wunderground v.1.15,2013-03-17 04:01:00,
2013-03-16 21:02:00,40.6,38.5,30.06,West,263,1.0,14.0,92,0.00,,,0.28,Wunderground v.1.15,2013-03-17 04:02:00,
2013-03-16 21:03:00,40.6,38.5,30.06,West,261,1.0,14.0,92,0.00,,,0.28,Wunderground v.1.15,2013-03-17 04:03:00,
2013-03-16 21:08:00,40.7,38.6,30.06,SW,227,2.0,14.0,92,0.00,,,0.28,Wunderground v.1.15,2013-03-17 04:08:00,
2013-03-16 21:14:00,40.7,38.3,30.07,West,264,5.0,14.0,91,0.00,,,0.29,Wunderground v.1.15,2013-03-17 04:14:00,
2013-03-16 21:19:00,40.5,38.1,30.07,SW,217,4.0,14.0,91,0.09,,,0.30,Wunderground v.1.15,2013-03-17 04:19:00,
2013-03-16 21:25:00,40.5,38.1,30.07,WSW,245,3.0,14.0,91,0.06,,,0.30,Wunderground v.1.15,2013-03-17 04:25:00,
2013-03-16 21:30:00,40.5,38.1,30.07,SW,223,2.0,14.0,91,0.04,,,0.30,Wunderground v.1.15,2013-03-17 04:30:00,
2013-03-16 21:36:00,40.5,38.1,30.07,WNW,284,2.0,14.0,91,0.00,,,0.30,Wunderground v.1.15,2013-03-17 04:36:00,
2013-03-16 21:41:00,40.4,38.0,30.07,SSW,208,3.0,14.0,91,0.00,,,0.30,Wunderground v.1.15,2013-03-17 04:41:00,
2013-03-16 21:47:00,40.4,38.0,30.07,West,274,4.0,14.0,91,0.00,,,0.30,Wunderground v.1.15,2013-03-17 04:47:00,
2013-03-16 21:52:00,40.4,37.7,30.07,WSW,240,4.0,14.0,90,0.00,,,0.30,Wunderground v.1.15,2013-03-17 04:52:00,
2013-03-16 21:58:00,40.5,38.1,30.07,West,260,3.0,14.0,91,0.00,,,0.30,Wunderground v.1.15,2013-03-17 04:58:00,
2013-03-16 22:03:00,40.6,37.9,30.07,SW,221,3.0,14.0,90,0.00,,,0.30,Wunderground v.1.15,2013-03-17 05:03:00,
2013-03-16 22:09:00,40.6,37.9,30.07,WSW,242,4.0,14.0,90,0.00,,,0.30,Wunderground v.1.15,2013-03-17 05:09:00,
2013-03-16 22:14:00,40.6,37.9,30.07,SSW,213,3.0,14.0,90,0.00,,,0.30,Wunderground v.1.15,2013-03-17 05:14:00,
2013-03-16 22:20:00,40.6,37.9,30.07,SW,235,3.0,14.0,90,0.00,,,0.30,Wunderground v.1.15,2013-03-17 05:20:00,
2013-03-16 22:26:00,40.7,38.0,30.08,SW,234,2.0,14.0,90,0.00,,,0.31,Wunderground v.1.15,2013-03-17 05:26:00,
2013-03-16 22:32:00,40.7,38.0,30.08,WNW,290,3.0,14.0,90,0.12,,,0.32,Wunderground v.1.15,2013-03-17 05:32:00,
2013-03-16 22:37:00,40.3,37.3,30.09,West,260,5.0,14.0,89,0.25,,,0.34,Wunderground v.1.15,2013-03-17 05:37:00,
2013-03-16 22:43:00,39.9,36.9,30.09,WNW,287,5.0,14.0,89,0.10,,,0.35,Wunderground v.1.15,2013-03-17 05:43:00,
2013-03-16 22:49:00,39.7,37.0,30.09,WSW,254,4.0,14.0,90,0.05,,,0.35,Wunderground v.1.15,2013-03-17 05:49:00,
2013-03-16 22:54:00,39.6,37.2,30.09,SW,236,4.0,14.0,91,0.04,,,0.35,Wunderground v.1.15,2013-03-17 05:54:00,
2013-03-16 23:00:00,39.5,37.1,30.09,West,259,3.0,14.0,91,0.00,,,0.35,Wunderground v.1.15,2013-03-17 06:00:00,
2013-03-16 23:05:00,39.5,37.1,30.09,West,269,3.0,14.0,91,0.00,,,0.36,Wunderground v.1.15,2013-03-17 06:05:00,
2013-03-16 23:11:00,39.6,37.5,30.09,WSW,243,3.0,14.0,92,0.09,,,0.37,Wunderground v.1.15,2013-03-17 06:11:00,
2013-03-16 23:17:00,39.7,37.6,30.10,WSW,241,2.0,14.0,92,0.06,,,0.37,Wunderground v.1.15,2013-03-17 06:17:00,
2013-03-16 23:22:00,39.7,37.6,30.10,WSW,241,1.0,14.0,92,0.04,,,0.37,Wunderground v.1.15,2013-03-17 06:22:00,
2013-03-16 23:27:00,39.7,37.6,30.10,SW,234,1.0,14.0,92,0.00,,,0.37,Wunderground v.1.15,2013-03-17 06:27:00,
2013-03-16 23:33:00,39.7,37.6,30.11,SW,219,1.0,14.0,92,0.00,,,0.37,Wunderground v.1.15,2013-03-17 06:33:00,
2013-03-16 23:38:00,39.8,37.7,30.11,WSW,254,2.0,14.0,92,0.00,,,0.37,Wunderground v.1.15,2013-03-17 06:38:00,
2013-03-16 23:44:00,39.8,37.7,30.11,WSW,253,1.0,14.0,92,0.00,,,0.38,Wunderground v.1.15,2013-03-17 06:44:00,
2013-03-16 23:50:00,39.8,37.9,30.11,WSW,248,0.0,14.0,93,0.00,,,0.38,Wunderground v.1.15,2013-03-17 06:50:00,
2013-03-16 23:56:00,39.9,38.0,30.11,SW,229,1.0,14.0,93,0.04,,,0.00,Wunderground v.1.15,2013-03-17 06:56:00,